| time (UTC) | temp F | wind direction | speed MPH | gust MPH | rain 1hr in | rain 24hr in | rain mn in | humidity % | barometer mb |
| 20260505003541 | 65 | 239 | 5.0 | 15.0 | 0.00 | 0.00 | 0.00 | 46 | 1008.4 |
| 20260505003041 | 65 | 249 | 8.0 | 16.0 | 0.00 | 0.00 | 0.00 | 45 | 1008.2 |
| 20260505002541 | 65 | 155 | 4.0 | 15.0 | 0.00 | 0.00 | 0.00 | 44 | 1008.0 |
| 20260505002041 | 66 | 182 | 4.0 | 10.0 | 0.00 | 0.00 | 0.00 | 43 | 1008.0 |
| 20260505001541 | 66 | 220 | 1.0 | 6.0 | 0.00 | 0.00 | 0.00 | 41 | 1007.7 |
| 20260505001041 | 66 | 231 | 3.0 | 9.0 | 0.00 | 0.00 | 0.00 | 40 | 1007.5 |
| 20260505000540 | 66 | 226 | 4.0 | 9.0 | 0.00 | 0.00 | 0.00 | 40 | 1007.5 |
| 20260505000044 | 66 | 222 | 2.0 | 6.0 | 0.00 | 0.00 | 0.00 | 41 | 1007.4 |
| 20260504235540 | 67 | 237 | 2.0 | 9.0 | 0.00 | 0.00 | 0.00 | 41 | 1007.3 |
| 20260504235040 | 67 | 225 | 3.0 | 9.0 | 0.00 | 0.00 | 0.00 | 39 | 1007.2 |
| 20260504234540 | 67 | 231 | 1.0 | 9.0 | 0.00 | 0.00 | 0.00 | 39 | 1007.2 |
| 20260504234042 | 68 | 201 | 2.0 | 9.0 | 0.00 | 0.00 | 0.00 | 38 | 1007.1 |
| 20260504233541 | 68 | 221 | 2.0 | 14.0 | 0.00 | 0.00 | 0.00 | 38 | 1007.0 |
| 20260504233054 | 68 | 240 | 3.0 | 14.0 | 0.00 | 0.00 | 0.00 | 38 | 1007.0 |
| 20260504232539 | 69 | 245 | 2.0 | 11.0 | 0.00 | 0.00 | 0.00 | 37 | 1006.9 |
| 20260504232038 | 69 | 164 | 5.0 | 12.0 | 0.00 | 0.00 | 0.00 | 37 | 1006.8 |
| 20260504231538 | 69 | 242 | 4.0 | 12.0 | 0.00 | 0.00 | 0.00 | 37 | 1006.9 |
| 20260504231038 | 69 | 224 | 5.0 | 13.0 | 0.00 | 0.00 | 0.00 | 37 | 1006.8 |
| 20260504230538 | 69 | 191 | 3.0 | 10.0 | 0.00 | 0.00 | 0.00 | 36 | 1006.6 |
| 20260504230038 | 70 | 250 | 5.0 | 11.0 | 0.00 | 0.00 | 0.00 | 35 | 1006.6 |
| 20260504225539 | 70 | 254 | 5.0 | 14.0 | 0.00 | 0.00 | 0.00 | 35 | 1006.6 |
| 20260504225037 | 70 | 235 | 6.0 | 14.0 | 0.00 | 0.00 | 0.00 | 35 | 1006.5 |
| 20260504224537 | 71 | 229 | 5.0 | 11.0 | 0.00 | 0.00 | 0.00 | 34 | 1006.4 |
| 20260504224039 | 71 | 241 | 4.0 | 12.0 | 0.00 | 0.00 | 0.00 | 35 | 1006.4 |
| 20260504223538 | 71 | 264 | 5.0 | 12.0 | 0.00 | 0.00 | 0.00 | 35 | 1006.2 |
| 20260504223038 | 71 | 214 | 4.0 | 10.0 | 0.00 | 0.00 | 0.00 | 35 | 1006.4 |
| 20260504222537 | 71 | 236 | 5.0 | 12.0 | 0.00 | 0.00 | 0.00 | 35 | 1006.3 |
| 20260504222036 | 71 | 225 | 3.0 | 12.0 | 0.00 | 0.00 | 0.00 | 35 | 1006.3 |
| 20260504221545 | 71 | 260 | 6.0 | 11.0 | 0.00 | 0.00 | 0.00 | 34 | 1006.4 |
| 20260504221036 | 71 | 200 | 4.0 | 15.0 | 0.00 | 0.00 | 0.00 | 35 | 1006.3 |
| 20260504220536 | 71 | 250 | 6.0 | 14.0 | 0.00 | 0.00 | 0.00 | 35 | 1006.4 |
| 20260504220047 | 72 | 271 | 7.0 | 15.0 | 0.00 | 0.00 | 0.00 | 33 | 1006.3 |
| 20260504215536 | 71 | 239 | 7.0 | 18.0 | 0.00 | 0.00 | 0.00 | 35 | 1006.4 |
| 20260504215035 | 71 | 231 | 4.0 | 18.0 | 0.00 | 0.00 | 0.00 | 33 | 1006.3 |
| 20260504214537 | 72 | 218 | 7.0 | 16.0 | 0.00 | 0.00 | 0.00 | 33 | 1006.4 |
| 20260504214035 | 72 | 260 | 8.0 | 16.0 | 0.00 | 0.00 | 0.00 | 32 | 1006.3 |
| 20260504213535 | 73 | 213 | 5.0 | 16.0 | 0.00 | 0.00 | 0.00 | 32 | 1006.3 |
| 20260504213035 | 72 | 298 | 6.0 | 16.0 | 0.00 | 0.00 | 0.00 | 33 | 1006.3 |
| 20260504212534 | 72 | 242 | 3.0 | 17.0 | 0.00 | 0.00 | 0.00 | 32 | 1006.4 |
| 20260504212037 | 72 | 255 | 10.0 | 16.0 | 0.00 | 0.00 | 0.00 | 32 | 1006.3 |
| 20260504211533 | 72 | 220 | 7.0 | 15.0 | 0.00 | 0.00 | 0.00 | 33 | 1006.4 |
| 20260504211033 | 73 | 243 | 7.0 | 14.0 | 0.00 | 0.00 | 0.00 | 32 | 1006.4 |
| 20260504210534 | 72 | 249 | 3.0 | 12.0 | 0.00 | 0.00 | 0.00 | 34 | 1006.4 |
| 20260504210033 | 71 | 274 | 5.0 | 17.0 | 0.00 | 0.00 | 0.00 | 34 | 1006.3 |
| 20260504205534 | 72 | 244 | 7.0 | 20.0 | 0.00 | 0.00 | 0.00 | 33 | 1006.3 |
| 20260504205033 | 74 | 253 | 7.0 | 11.0 | 0.00 | 0.00 | 0.00 | 31 | 1006.3 |
| 20260504204547 | 74 | 199 | 5.0 | 12.0 | 0.00 | 0.00 | 0.00 | 33 | 1006.2 |
| 20260504204031 | 73 | 272 | 5.0 | 19.0 | 0.00 | 0.00 | 0.00 | 32 | 1006.2 |
| 20260504203533 | 73 | 239 | 8.0 | 19.0 | 0.00 | 0.00 | 0.00 | 31 | 1006.5 |
| 20260504203032 | 72 | 249 | 8.0 | 17.0 | 0.00 | 0.00 | 0.00 | 32 | 1006.4 |
| 20260504202531 | 73 | 278 | 7.0 | 19.0 | 0.00 | 0.00 | 0.00 | 33 | 1006.4 |
| 20260504202030 | 73 | 270 | 11.0 | 19.0 | 0.00 | 0.00 | 0.00 | 31 | 1006.4 |
| 20260504201531 | 74 | 264 | 6.0 | 14.0 | 0.00 | 0.00 | 0.00 | 33 | 1006.3 |
| 20260504201029 | 73 | 226 | 4.0 | 15.0 | 0.00 | 0.00 | 0.00 | 32 | 1006.4 |
| 20260504200534 | 73 | 149 | 5.0 | 21.0 | 0.00 | 0.00 | 0.00 | 31 | 1006.4 |
| 20260504200028 | 72 | 256 | 10.0 | 21.0 | 0.00 | 0.00 | 0.00 | 31 | 1006.5 |
| 20260504195527 | 73 | 220 | 8.0 | 16.0 | 0.00 | 0.00 | 0.00 | 31 | 1006.4 |
| 20260504195027 | 72 | 262 | 9.0 | 17.0 | 0.00 | 0.00 | 0.00 | 31 | 1006.5 |
| 20260504194531 | 72 | 224 | 10.0 | 21.0 | 0.00 | 0.00 | 0.00 | 31 | 1006.5 |
| 20260504194027 | 72 | 183 | 11.0 | 21.0 | 0.00 | 0.00 | 0.00 | 31 | 1006.6 |
| 20260504193526 | 73 | 256 | 7.0 | 16.0 | 0.00 | 0.00 | 0.00 | 31 | 1006.5 |
| 20260504193026 | 73 | 220 | 9.0 | 19.0 | 0.00 | 0.00 | 0.00 | 31 | 1006.5 |
| 20260504192525 | 72 | 225 | 8.0 | 21.0 | 0.00 | 0.00 | 0.00 | 33 | 1006.6 |
| 20260504192024 | 72 | 309 | 10.0 | 21.0 | 0.00 | 0.00 | 0.00 | 31 | 1006.6 |
| 20260504191523 | 72 | 257 | 10.0 | 21.0 | 0.00 | 0.00 | 0.00 | 30 | 1006.6 |
| 20260504191023 | 72 | 216 | 10.0 | 21.0 | 0.00 | 0.00 | 0.00 | 32 | 1006.6 |
| 20260504190523 | 72 | 262 | 9.0 | 18.0 | 0.00 | 0.00 | 0.00 | 31 | 1006.6 |
| 20260504190025 | 72 | 252 | 7.0 | 19.0 | 0.00 | 0.00 | 0.00 | 33 | 1006.5 |
| 20260504185521 | 72 | 268 | 9.0 | 21.0 | 0.00 | 0.00 | 0.00 | 33 | 1006.8 |
| 20260504185020 | 72 | 221 | 6.0 | 18.0 | 0.00 | 0.00 | 0.00 | 32 | 1006.8 |
| 20260504184523 | 71 | 286 | 8.0 | 23.0 | 0.00 | 0.00 | 0.00 | 31 | 1007.0 |
| 20260504184019 | 71 | 270 | 10.0 | 23.0 | 0.00 | 0.00 | 0.00 | 32 | 1007.2 |
| 20260504183518 | 71 | 233 | 9.0 | 20.0 | 0.00 | 0.00 | 0.00 | 31 | 1007.0 |
| 20260504183019 | 71 | 238 | 12.0 | 20.0 | 0.00 | 0.00 | 0.00 | 32 | 1007.1 |
| 20260504182517 | 71 | 253 | 7.0 | 13.0 | 0.00 | 0.00 | 0.00 | 33 | 1007.1 |
| 20260504182016 | 71 | 185 | 4.0 | 19.0 | 0.00 | 0.00 | 0.00 | 36 | 1007.1 |
| 20260504181516 | 71 | 241 | 8.0 | 19.0 | 0.00 | 0.00 | 0.00 | 31 | 1007.2 |
| 20260504181015 | 70 | 196 | 6.0 | 22.0 | 0.00 | 0.00 | 0.00 | 32 | 1007.2 |
| 20260504180515 | 70 | 257 | 7.0 | 18.0 | 0.00 | 0.00 | 0.00 | 35 | 1007.1 |
| 20260504180014 | 70 | 272 | 10.0 | 16.0 | 0.00 | 0.00 | 0.00 | 34 | 1007.3 |
| 20260504175514 | 69 | 293 | 9.0 | 16.0 | 0.00 | 0.00 | 0.00 | 33 | 1007.2 |
| 20260504175013 | 70 | 257 | 9.0 | 25.0 | 0.00 | 0.00 | 0.00 | 33 | 1007.3 |
| 20260504174513 | 69 | 228 | 11.0 | 25.0 | 0.00 | 0.00 | 0.00 | 34 | 1007.2 |
| 20260504174013 | 70 | 289 | 9.0 | 23.0 | 0.00 | 0.00 | 0.00 | 33 | 1007.2 |
| 20260504173514 | 69 | 241 | 9.0 | 23.0 | 0.00 | 0.00 | 0.00 | 32 | 1007.3 |
| 20260504173012 | 69 | 256 | 9.0 | 22.0 | 0.00 | 0.00 | 0.00 | 33 | 1007.3 |
| 20260504172510 | 69 | 216 | 8.0 | 22.0 | 0.00 | 0.00 | 0.00 | 33 | 1007.5 |
| 20260504172010 | 69 | 239 | 11.0 | 22.0 | 0.00 | 0.00 | 0.00 | 33 | 1007.6 |
| 20260504171509 | 69 | 251 | 7.0 | 26.0 | 0.00 | 0.00 | 0.00 | 35 | 1007.3 |
| 20260504171012 | 68 | 260 | 11.0 | 21.0 | 0.00 | 0.00 | 0.00 | 35 | 1007.4 |
| 20260504170508 | 67 | 220 | 11.0 | 21.0 | 0.00 | 0.00 | 0.00 | 35 | 1007.6 |
| 20260504160106 | 66 | 195 | 9.0 | 24.0 | 0.00 | 0.00 | 0.00 | 36 | 1008.0 |
| 20260504151051 | 64 | 204 | 7.0 | 19.0 | 0.00 | 0.00 | 0.00 | 41 | 1008.3 |
| 20260504150550 | 64 | 233 | 8.0 | 18.0 | 0.00 | 0.00 | 0.00 | 40 | 1008.5 |
| 20260504141040 | 62 | 249 | 5.0 | 10.0 | 0.00 | 0.00 | 0.00 | 44 | 1009.3 |
| 20260504140543 | 62 | 295 | 8.0 | 14.0 | 0.00 | 0.00 | 0.00 | 44 | 1009.4 |
| 20260504130524 | 58 | 266 | 6.0 | 15.0 | 0.00 | 0.00 | 0.00 | 51 | 1009.8 |
| 20260504110551 | 46 | 230 | 1.0 | 4.0 | 0.00 | 0.00 | 0.00 | 64 | 1010.6 |
| 20260504100538 | 44 | 214 | 1.0 | 6.0 | 0.00 | 0.00 | 0.00 | 66 | 1010.6 |
| 20260504081541 | 43 | 224 | 1.0 | 4.0 | 0.00 | 0.00 | 0.00 | 67 | 1010.4 |
| 20260504081026 | 43 | 223 | 0.0 | 3.0 | 0.00 | 0.00 | 0.00 | 67 | 1010.4 |
| 20260504080525 | 43 | 223 | 1.0 | 4.0 | 0.00 | 0.00 | 0.00 | 68 | 1010.4 |
| 20260504050558 | 37 | 237 | 1.0 | 3.0 | 0.00 | 0.00 | 0.00 | 79 | 1010.2 |
| 20260504045557 | 37 | 237 | 1.0 | 4.0 | 0.00 | 0.00 | 0.00 | 79 | 1010.3 |
| 20260504045057 | 37 | 237 | 1.0 | 3.0 | 0.00 | 0.00 | 0.00 | 78 | 1010.3 |
| 20260504044556 | 37 | 236 | 1.0 | 3.0 | 0.00 | 0.00 | 0.00 | 78 | 1010.4 |
| 20260504044055 | 37 | 237 | 1.0 | 4.0 | 0.00 | 0.00 | 0.00 | 78 | 1010.4 |
| 20260504043555 | 37 | 237 | 1.0 | 4.0 | 0.00 | 0.00 | 0.00 | 78 | 1010.3 |
| 20260504043059 | 37 | 237 | 2.0 | 5.0 | 0.00 | 0.00 | 0.00 | 79 | 1010.3 |
| 20260504042556 | 37 | 239 | 2.0 | 5.0 | 0.00 | 0.00 | 0.00 | 80 | 1010.3 |
| 20260504042053 | 37 | 231 | 2.0 | 5.0 | 0.00 | 0.00 | 0.00 | 80 | 1010.3 |
| 20260504041551 | 37 | 237 | 1.0 | 3.0 | 0.00 | 0.00 | 0.00 | 80 | 1010.3 |
| 20260504041053 | 37 | 237 | 0.0 | 3.0 | 0.00 | 0.00 | 0.00 | 80 | 1010.3 |
| 20260504040551 | 36 | 237 | 1.0 | 3.0 | 0.00 | 0.00 | 0.00 | 80 | 1010.3 |
| 20260504040050 | 36 | 237 | 1.0 | 3.0 | 0.00 | 0.00 | 0.00 | 80 | 1010.2 |
| 20260504035549 | 36 | 237 | 1.0 | 3.0 | 0.00 | 0.00 | 0.00 | 80 | 1010.3 |
| 20260504035050 | 36 | 236 | 1.0 | 3.0 | 0.00 | 0.00 | 0.00 | 81 | 1010.2 |
| 20260504034550 | 36 | 243 | 1.0 | 3.0 | 0.00 | 0.00 | 0.00 | 80 | 1010.2 |
| 20260504034049 | 37 | 257 | 1.0 | 3.0 | 0.00 | 0.00 | 0.00 | 80 | 1010.2 |
| 20260504033551 | 36 | 257 | 1.0 | 3.0 | 0.00 | 0.00 | 0.00 | 79 | 1010.2 |
| 20260504033049 | 37 | 257 | 1.0 | 3.0 | 0.00 | 0.00 | 0.00 | 79 | 1010.1 |
| 20260504032548 | 37 | 257 | 0.0 | 3.0 | 0.00 | 0.00 | 0.00 | 79 | 1010.1 |
| 20260504032053 | 37 | 257 | 1.0 | 3.0 | 0.00 | 0.00 | 0.00 | 79 | 1010.1 |
| 20260504031548 | 37 | 257 | 1.0 | 4.0 | 0.00 | 0.00 | 0.00 | 79 | 1010.1 |
| 20260504031045 | 37 | 265 | 1.0 | 3.0 | 0.00 | 0.00 | 0.00 | 79 | 1010.1 |
| 20260504030545 | 37 | 265 | 1.0 | 3.0 | 0.00 | 0.00 | 0.00 | 79 | 1010.1 |
| 20260504030045 | 37 | 265 | 1.0 | 3.0 | 0.00 | 0.00 | 0.00 | 79 | 1010.0 |
| 20260504025544 | 37 | 265 | 1.0 | 3.0 | 0.00 | 0.00 | 0.00 | 79 | 1010.1 |
| 20260504025044 | 37 | 265 | 1.0 | 3.0 | 0.00 | 0.00 | 0.00 | 79 | 1010.0 |
| 20260504024545 | 37 | 265 | 1.0 | 3.0 | 0.00 | 0.00 | 0.00 | 78 | 1010.0 |
| 20260504024044 | 38 | 265 | 0.0 | 3.0 | 0.00 | 0.00 | 0.00 | 78 | 1010.0 |
| 20260504023541 | 38 | 265 | 0.0 | 0.0 | 0.00 | 0.00 | 0.00 | 78 | 1010.0 |
| 20260504023041 | 38 | 265 | 0.0 | 0.0 | 0.00 | 0.00 | 0.00 | 77 | 1010.0 |
| 20260504022540 | 38 | 266 | 0.0 | 2.0 | 0.00 | 0.00 | 0.00 | 77 | 1009.8 |
| 20260504022038 | 39 | 266 | 0.0 | 2.0 | 0.00 | 0.00 | 0.00 | 76 | 1009.8 |
| 20260504021538 | 39 | 265 | 0.0 | 2.0 | 0.00 | 0.00 | 0.00 | 75 | 1009.8 |
| 20260504021041 | 39 | 265 | 0.0 | 0.0 | 0.00 | 0.00 | 0.00 | 75 | 1009.8 |
| 20260504020537 | 39 | 265 | 0.0 | 2.0 | 0.00 | 0.00 | 0.00 | 74 | 1009.8 |
| 20260504020057 | 39 | 265 | 0.0 | 3.0 | 0.00 | 0.00 | 0.00 | 74 | 1009.8 |
| 20260504015536 | 39 | 265 | 0.0 | 2.0 | 0.00 | 0.00 | 0.00 | 73 | 1009.7 |
| 20260504015035 | 39 | 264 | 0.0 | 1.0 | 0.00 | 0.00 | 0.00 | 73 | 1009.8 |
| 20260504014548 | 40 | 265 | 0.0 | 3.0 | 0.00 | 0.00 | 0.00 | 72 | 1009.7 |
| 20260504014033 | 40 | 265 | 0.0 | 3.0 | 0.00 | 0.00 | 0.00 | 72 | 1009.7 |
| 20260504013532 | 40 | 265 | 0.0 | 1.0 | 0.00 | 0.00 | 0.00 | 70 | 1009.6 |
| 20260504013040 | 40 | 265 | 0.0 | 0.0 | 0.00 | 0.00 | 0.00 | 70 | 1009.6 |
| 20260504012532 | 41 | 266 | 0.0 | 0.0 | 0.00 | 0.00 | 0.00 | 69 | 1009.6 |
| 20260504012032 | 41 | 265 | 0.0 | 0.0 | 0.00 | 0.00 | 0.00 | 68 | 1009.6 |
| 20260504011531 | 42 | 265 | 0.0 | 0.0 | 0.00 | 0.00 | 0.00 | 68 | 1009.5 |
| 20260504011032 | 42 | 265 | 0.0 | 0.0 | 0.00 | 0.00 | 0.00 | 67 | 1009.4 |
| 20260504010535 | 43 | 265 | 0.0 | 0.0 | 0.00 | 0.00 | 0.00 | 66 | 1009.4 |
| 20260504010032 | 43 | 265 | 0.0 | 1.0 | 0.00 | 0.00 | 0.00 | 66 | 1009.3 |
| 20260504005531 | 44 | 265 | 0.0 | 2.0 | 0.00 | 0.00 | 0.00 | 65 | 1009.3 |
| 20260504005031 | 44 | 265 | 0.0 | 2.0 | 0.00 | 0.00 | 0.00 | 64 | 1009.3 |
| 20260504004536 | 45 | 265 | 0.0 | 1.0 | 0.00 | 0.00 | 0.00 | 61 | 1009.3 |
| 20260504004031 | 45 | 265 | 0.0 | 1.0 | 0.00 | 0.00 | 0.00 | 58 | 1009.2 |